• In Hungary
  • List of Countries
  • For 7 days
  • Water Temperature
  • Satellite Maps
  • Weather Map
  • News
  • Weather Widgets
  • user-avatar
    Login

    Hourly Weather Marsa Alam

    Today, 26 September, Wednesday

    Time Temperature Precipitation Wind Pressure Humidity
    00:00 +32°C° 0 mm 2 mps 713 mmHg 24%
    01:00 +32°C° 0 mm 2 mps 713 mmHg 25%
    02:00 +31°C° 0 mm 2 mps 712 mmHg 27%
    03:00 +30°C° 0 mm 2 mps 713 mmHg 28%
    04:00 +30°C° 0 mm 2 mps 713 mmHg 29%
    05:00 +29°C° 0 mm 2 mps 713 mmHg 30%
    06:00 +31°C° 0 mm 2 mps 713 mmHg 27%
    07:00 +34°C° 0 mm 2 mps 713 mmHg 24%
    08:00 +36°C° 0 mm 2 mps 714 mmHg 22%
    09:00 +37°C° 0 mm 2 mps 714 mmHg 20%
    10:00 +39°C° 0 mm 3 mps 714 mmHg 17%
    11:00 +40°C° 0 mm 3 mps 714 mmHg 15%
    12:00 +40°C° 0 mm 3 mps 714 mmHg 16%
    13:00 +42°C° 0 mm 4 mps 713 mmHg 16%
    14:00 +42°C° 0 mm 4 mps 713 mmHg 17%
    15:00 +41°C° 0 mm 4 mps 713 mmHg 19%
    16:00 +40°C° 0 mm 4 mps 712 mmHg 22%
    17:00 +38°C° 0 mm 3 mps 712 mmHg 24%
    18:00 +36°C° 0 mm 3 mps 712 mmHg 27%
    19:00 +35°C° 0 mm 3 mps 713 mmHg 30%
    20:00 +34°C° 0 mm 2 mps 713 mmHg 33%
    21:00 +34°C° 0 mm 2 mps 713 mmHg 33%
    22:00 +32°C° 0 mm 2 mps 713 mmHg 33%
    23:00 +32°C° 0 mm 2 mps 714 mmHg 33%

    Tomorrow, 27 September, Thursday

    Time Temperature Precipitation Wind Pressure Humidity
    00:00 +31°C° 0 mm 2 mps 713 mmHg 33%
    01:00 +31°C° 0 mm 2 mps 713 mmHg 33%
    02:00 +30°C° 0 mm 2 mps 713 mmHg 33%
    03:00 +30°C° 0 mm 2 mps 713 mmHg 33%
    04:00 +29°C° 0 mm 2 mps 713 mmHg 32%
    05:00 +29°C° 0 mm 2 mps 713 mmHg 32%
    06:00 +31°C° 0 mm 2 mps 713 mmHg 28%
    07:00 +33°C° 0 mm 3 mps 714 mmHg 24%
    08:00 +35°C° 0 mm 3 mps 714 mmHg 21%
    09:00 +36°C° 0 mm 4 mps 714 mmHg 19%
    10:00 +38°C° 0 mm 4 mps 714 mmHg 17%
    11:00 +40°C° 0 mm 4 mps 715 mmHg 15%
    12:00 +41°C° 0 mm 5 mps 714 mmHg 15%
    13:00 +41°C° 0 mm 5 mps 714 mmHg 15%
    14:00 +41°C° 0 mm 5 mps 713 mmHg 16%
    15:00 +40°C° 0 mm 5 mps 713 mmHg 18%
    16:00 +38°C° 0 mm 4 mps 713 mmHg 19%
    17:00 +37°C° 0 mm 4 mps 713 mmHg 21%
    18:00 +36°C° 0 mm 4 mps 713 mmHg 23%
    19:00 +35°C° 0 mm 3 mps 714 mmHg 25%
    20:00 +34°C° 0 mm 3 mps 714 mmHg 26%
    21:00 +34°C° 0 mm 3 mps 714 mmHg 26%
    22:00 +32°C° 0 mm 2 mps 714 mmHg 25%
    23:00 +32°C° 0 mm 2 mps 714 mmHg 24%

    Day after tomorrow, 28 September, Friday

    Time Temperature Precipitation Wind Pressure Humidity
    00:00 +32°C° 0 mm 2 mps 714 mmHg 23%
    01:00 +32°C° 0 mm 2 mps 714 mmHg 22%
    02:00 +31°C° 0 mm 2 mps 713 mmHg 21%
    03:00 +31°C° 0 mm 2 mps 713 mmHg 21%
    04:00 +31°C° 0 mm 3 mps 713 mmHg 21%
    05:00 +31°C° 0 mm 3 mps 713 mmHg 21%
    06:00 +33°C° 0 mm 3 mps 714 mmHg 19%
    07:00 +35°C° 0 mm 4 mps 714 mmHg 17%
    08:00 +37°C° 0 mm 5 mps 715 mmHg 16%
    09:00 +39°C° 0 mm 5 mps 715 mmHg 14%
    10:00 +41°C° 0 mm 5 mps 715 mmHg 12%
    11:00 +44°C° 0 mm 6 mps 715 mmHg 11%
    12:00 +44°C° 0 mm 6 mps 714 mmHg 11%
    13:00 +44°C° 0 mm 6 mps 714 mmHg 11%
    14:00 +45°C° 0 mm 6 mps 713 mmHg 10%
    15:00 +44°C° 0 mm 6 mps 713 mmHg 11%
    16:00 +42°C° 0 mm 6 mps 713 mmHg 12%
    17:00 +41°C° 0 mm 5 mps 713 mmHg 13%
    18:00 +40°C° 0 mm 5 mps 713 mmHg 14%
    19:00 +38°C° 0 mm 4 mps 713 mmHg 15%
    20:00 +37°C° 0 mm 4 mps 713 mmHg 16%
    21:00 +37°C° 0 mm 4 mps 713 mmHg 15%
    22:00 +37°C° 0 mm 3 mps 713 mmHg 15%
    23:00 +36°C° 0 mm 3 mps 713 mmHg 15%

    29 September, Saturday

    Time Temperature Precipitation Wind Pressure Humidity
    00:00 +36°C° 0 mm 3 mps 713 mmHg 17%
    01:00 +35°C° 0 mm 3 mps 713 mmHg 19%
    02:00 +34°C° 0 mm 3 mps 712 mmHg 21%
    03:00 +34°C° 0 mm 4 mps 712 mmHg 21%
    04:00 +34°C° 0 mm 4 mps 713 mmHg 22%
    05:00 +34°C° 0 mm 4 mps 713 mmHg 22%
    06:00 +35°C° 0 mm 5 mps 713 mmHg 20%
    07:00 +38°C° 0 mm 6 mps 714 mmHg 17%
    08:00 +39°C° 0 mm 7 mps 714 mmHg 14%
    09:00 +41°C° 0 mm 7 mps 714 mmHg 13%
    10:00 +43°C° 0 mm 7 mps 714 mmHg 12%
    11:00 +44°C° 0 mm 7 mps 714 mmHg 12%
    12:00 +44°C° 0 mm 7 mps 713 mmHg 11%
    13:00 +45°C° 0 mm 7 mps 713 mmHg 11%
    14:00 +45°C° 0 mm 6 mps 712 mmHg 11%
    15:00 +44°C° 0 mm 6 mps 712 mmHg 13%
    16:00 +41°C° 0 mm 5 mps 712 mmHg 14%
    17:00 +40°C° 0 mm 5 mps 712 mmHg 16%
    18:00 +38°C° 0 mm 4 mps 713 mmHg 17%
    19:00 +37°C° 0 mm 3 mps 713 mmHg 19%
    20:00 +35°C° 0 mm 2 mps 713 mmHg 20%
    21:00 +35°C° 0 mm 2 mps 713 mmHg 19%
    22:00 +35°C° 0 mm 2 mps 713 mmHg 19%
    23:00 +34°C° 0 mm 2 mps 713 mmHg 18%

    30 September, Sunday

    Time Temperature Precipitation Wind Pressure Humidity
    00:00 +34°C° 0 mm 2 mps 713 mmHg 18%
    01:00 +34°C° 0 mm 3 mps 713 mmHg 19%
    02:00 +33°C° 0 mm 3 mps 712 mmHg 20%
    03:00 +33°C° 0 mm 3 mps 712 mmHg 20%
    04:00 +33°C° 0 mm 3 mps 713 mmHg 20%
    05:00 +33°C° 0 mm 3 mps 713 mmHg 20%
    06:00 +34°C° 0 mm 4 mps 713 mmHg 18%
    07:00 +36°C° 0 mm 4 mps 714 mmHg 16%
    08:00 +38°C° 0 mm 4 mps 714 mmHg 14%
    09:00 +40°C° 0 mm 4 mps 714 mmHg 14%
    10:00 +41°C° 0 mm 5 mps 714 mmHg 13%
    11:00 +43°C° 0 mm 5 mps 714 mmHg 12%
    12:00 +43°C° 0 mm 5 mps 713 mmHg 12%
    13:00 +44°C° 0 mm 6 mps 713 mmHg 12%
    14:00 +44°C° 0 mm 6 mps 713 mmHg 12%
    15:00 +42°C° 0 mm 5 mps 713 mmHg 13%
    16:00 +41°C° 0 mm 4 mps 713 mmHg 14%
    17:00 +40°C° 0 mm 4 mps 713 mmHg 15%
    18:00 +37°C° 0.1 mm 3 mps 713 mmHg 17%
    19:00 +36°C° 0.1 mm 3 mps 714 mmHg 19%
    20:00 +35°C° 0.1 mm 3 mps 714 mmHg 21%
    21:00 +35°C° 0 mm 2 mps 714 mmHg 20%
    22:00 +34°C° 0 mm 2 mps 713 mmHg 20%
    23:00 +34°C° 0 mm 2 mps 713 mmHg 20%

    1 October, Monday

    Time Temperature Precipitation Wind Pressure Humidity
    00:00 +34°C° 0 mm 2 mps 713 mmHg 19%
    01:00 +34°C° 0 mm 2 mps 713 mmHg 19%
    02:00 +33°C° 0 mm 3 mps 712 mmHg 19%
    03:00 +33°C° 0.1 mm 3 mps 713 mmHg 20%
    04:00 +33°C° 0.1 mm 3 mps 713 mmHg 22%
    05:00 +33°C° 0.1 mm 3 mps 713 mmHg 23%
    06:00 +34°C° 0 mm 3 mps 713 mmHg 24%
    07:00 +34°C° 0 mm 3 mps 714 mmHg 25%
    08:00 +35°C° 0 mm 3 mps 714 mmHg 27%
    09:00 +36°C° 0 mm 3 mps 714 mmHg 25%
    10:00 +37°C° 0 mm 3 mps 714 mmHg 24%
    11:00 +38°C° 0 mm 4 mps 714 mmHg 23%
    12:00 +40°C° 0 mm 4 mps 713 mmHg 21%
    13:00 +40°C° 0 mm 4 mps 713 mmHg 19%
    14:00 +41°C° 0 mm 4 mps 713 mmHg 18%
    15:00 +41°C° 0 mm 4 mps 713 mmHg 19%
    16:00 +39°C° 0 mm 3 mps 713 mmHg 20%
    17:00 +38°C° 0 mm 3 mps 713 mmHg 21%
    18:00 +37°C° 0 mm 3 mps 713 mmHg 24%
    19:00 +36°C° 0 mm 3 mps 713 mmHg 26%
    20:00 +35°C° 0 mm 2 mps 713 mmHg 29%
    21:00 +34°C° 0 mm 3 mps 713 mmHg 29%
    22:00 +34°C° 0 mm 3 mps 713 mmHg 30%
    23:00 +33°C° 0 mm 3 mps 713 mmHg 30%
    Show more